Home   Weather   Pasadena   Past weeks

Flag for USA Past Weather in Pasadena, Texas, USA — Yesterday and Last 2 Weeks

Now
59 °F

Fog.


Feels Like: 59 °F
Forecast: 50 / 70 °F
Wind: No wind

Location: Houston / Ellington

Current Time: Dec 6, 2016 at 8:16:01 am

Latest Report: Dec 6, 2016 at 6:50 am


Visibility: 6 mi

Pressure: 29.88 "Hg

Humidity: 100%

Dew Point: 59 °F

Location of PasadenaLocation

Past Weather in Pasadena — Graph

°F

Pasadena Temperature Yesterday

Maximum temperature yesterday: 59 °F (at 2:50 pm)
Minimum temperature yesterday: 52 °F (at 6:50 am)
Average temperature yesterday: 57 °F

High & Low Weather Summary for the Past Weeks

 TemperatureHumidityPressure
High84 °F (Nov 29, 12:50 pm)100% (Nov 23, 8:50 am)30.39 "Hg (Nov 23, 8:50 am)
Low48 °F (Dec 1, 4:50 am)26% (Nov 30, 3:50 pm)29.53 "Hg (Nov 28, 2:50 pm)
Average64 °F74%30.01 "Hg
* Reported Nov 21 6:50 am — Dec 6 6:50 am, Pasadena, Weather by CustomWeather, © 2016

Note: Actual official high and low records may vary slightly from our data, if they occured in-between our weather recording intervals... More about our weather records

Advertising

Pasadena Weather History for the Previous 24 Hours

Scroll right to see more
 ConditionsComfort  
Time TempWeatherWind HumidityBarometerVisibility
6:50 am
Tue, Dec 6
59 °FFog.No wind100%29.88 "Hg6 mi
5:50 am59 °FPassing clouds.No wind100%29.87 "Hg10 mi
4:50 am59 °FPassing clouds.5 mph100%29.86 "Hg10 mi
3:50 am59 °FPassing clouds.3 mph100%29.86 "Hg10 mi
2:50 am59 °FPassing clouds.6 mph100%29.86 "Hg10 mi
1:50 am59 °FPassing clouds.5 mph100%29.85 "Hg10 mi
12:50 am59 °FMostly cloudy.5 mph100%29.84 "Hg10 mi
11:50 pm
Mon, Dec 5
59 °FOvercast.7 mph100%29.82 "Hg10 mi
10:50 pm59 °FPartly cloudy.7 mph100%29.82 "Hg10 mi
9:50 pm59 °FMostly cloudy.7 mph100%29.80 "Hg10 mi
8:50 pm59 °FLow clouds.8 mph100%29.80 "Hg7 mi
7:50 pm59 °FPassing clouds.8 mph100%29.79 "Hg7 mi
6:50 pm59 °FLow clouds.7 mph100%29.78 "Hg7 mi
5:50 pm59 °FFog.No wind100%29.75 "Hg6 mi
4:50 pm59 °FFog.9 mph100%29.74 "Hg6 mi
3:50 pm59 °FFog.10 mph100%29.75 "Hg2 mi
2:50 pm59 °FFog.10 mph100%29.75 "Hg1 mi
1:50 pm57 °FFog.7 mph100%29.74 "Hg1 mi
12:50 pm57 °FFog.6 mph100%29.76 "Hg4 mi
11:50 am57 °FLow clouds.3 mph100%29.78 "Hg7 mi
10:50 am57 °FMostly cloudy.3 mph100%29.81 "Hg7 mi
9:50 am55 °FMostly cloudy.7 mph100%29.82 "Hg7 mi
8:50 am52 °FRain. Mostly cloudy.7 mph94%29.84 "Hg7 mi
Weather by CustomWeather, © 2016

See weather overviewHow to use our weather pages